Location: Central Falls
(41.8900°N, 71.3929°W)
Time: 20:42:52
(UTC+00:00)

Courier 1B Rocket - Pass Details

Date: 07 December 2023
Orbit: 920 x 1202 km, 28.2° (Epoch: 04 March)

Event Time Altitude Azimuth Distance (km) Brightness Sun altitude
Rises 19:25:50 0° 253° (WSW) 3,645 9.0 14.6°
Reaches altitude 10° 19:29:19 10° 236° (SW) 2,658 9.2 14.2°
Maximum altitude 19:33:33 19° 194° (SSW) 2,069 8.1 13.7°
Drops below altitude 10° 19:37:42 10° 151° (SSE) 2,602 7.6 13.1°
Sets 19:41:05 0° 134° (SE) 3,541 8.0 12.7°
